Location: Kouchibouguac National Park
(46.7962°N, 64.9642°W)
Time: 17:45:52
(UTC-04:00)

ISS - Visible Passes

Search period start: 08 December 2019 00:00
Search period end: 18 December 2019 00:00
Orbit: 411 x 421 km, 51.6° (Epoch: 08 December)

Date Brightness Start Highest point End Pass type
(mag) Time Alt. Az. Time Alt. Az. Time Alt. Az.
08 Dec -3.3 18:04:19 10° WNW 18:07:38 61° SSW 18:09:54 19° SE visible
09 Dec -3.8 17:15:47 10° WNW 17:19:10 89° NE 17:22:32 10° ESE visible
09 Dec -1.0 18:53:16 10° W 18:55:31 17° SW 18:57:15 12° S visible
10 Dec -1.6 18:04:19 10° W 18:07:10 26° SW 18:10:03 10° SSE visible
11 Dec -2.3 17:15:35 10° WNW 17:18:47 41° SW 17:21:57 10° SE visible
12 Dec -0.3 18:05:24 10° WSW 18:06:30 11° SW 18:07:35 10° SSW visible
13 Dec -0.6 17:15:48 10° W 17:18:10 18° SW 17:20:32 10° S visible
